Regional Weather Roundup
Issued by NWS

Home | Current Version | Previous Version | Text Only | Print | Product List | Glossary On
Versions: 1 2 3 4 5 6 7 8 9 10 11 12 13 14 15 16 17 18 19 20 21 22 23 24 25 26 27 28 29 30 31 32 33 34 35 36 37 38 39 40 41 42 43 44 45 46 47 48 49 50
000
ASUS44 KMEG 220110
RWRTN
TENNESSEE HOURLY STATE WEATHER ROUNDUP
NATIONAL WEATHER SERVICE MEMPHIS TN
800 PM CDT THU SEP 21 2017

TNZ002-004-019-021-049-052-054-088>092-220200-
WEST TENNESSEE

CITY           SKY/WX    TMP DP  RH WIND       PRES   REMARKS
MEMPHIS INTL   PTCLDY    82  71  69 CALM      29.97S
NWS MEMPHIS      N/A     78 N/A N/A MISG        N/A
JACKSON        MOCLDY    81  74  79 CALM      30.00R
DYERSBURG      CLEAR     79  73  82 CALM      29.99R
SOMERVILLE     CLEAR     77  75  94 CALM      29.98R
COVINGTON      CLEAR     77  73  88 CALM      29.98R
BOLIVAR        MOCLDY    81  73  78 E6        30.00R
PARIS          CLEAR     79  72  78 SE5       30.00R
HUNTINGDON     PTCLDY    77  73  88 CALM      30.00R
LEXINGTON      CLEAR     73  72  94 CALM      30.01R FOG
SAVANNAH       MOCLDY    73  72  94 CALM      30.01R
$$

TNZ008-025-027-028-033-062-065-066-220200-
NORTH MIDDLE TENNESSEE

CITY           SKY/WX    TMP DP  RH WIND       PRES   REMARKS
NASHVILLE      PTCLDY    75  71  87 CALM      30.03R
PORTLAND       CLEAR     73  70  88 CALM      30.03R
CLARKSVILLE    CLEAR     74  68  81 CALM      30.01S
SMYRNA         CLEAR     81  70  69 VRB5      30.03R
COOKEVILLE     CLEAR     66  64  94 CALM      30.05R FOG
GALLATIN       CLEAR     75  70  83 CALM      30.05R
CROSSVILLE     CLEAR     68  65  90 CALM      30.10S
$$

TNZ061-075-076-078-094-096-097-220200-
SOUTH MIDDLE TENNESSEE

CITY           SKY/WX    TMP DP  RH WIND       PRES   REMARKS
TULLAHOMA      CLEAR     68  66  94 CALM      30.05S
WINCHESTER     CLEAR     72  70  94 CALM      30.05R
MCMINNVILLE    CLEAR     72  72 100 CALM      30.05S
COLUMBIA       CLEAR     75 N/A N/A CALM      30.00S
SHELBYVILLE    CLEAR     72  70  94 CALM      30.03S
$$

TNZ017-018-042-046-047-220200-
NORTHEAST TENNESSEE

CITY           SKY/WX    TMP DP  RH WIND       PRES   REMARKS
TRI CITIES     CLEAR     71  65  81 CALM      30.08R
ELIZABETHTON   CLEAR     70  63  78 CALM      30.09R
$$

TNZ012-013-036-069-073-074-220200-
CENTRAL EAST TENNESSEE

CITY           SKY/WX    TMP DP  RH WIND       PRES   REMARKS
KNOXVILLE      CLEAR     77  62  59 N5        30.03R
OAK RIDGE      CLEAR     74  68  81 CALM      30.05S
DOWNTOWN KNOXV   N/A     72  70  94 CALM      30.03R
GATLINBURG     CLEAR     73  61  64 CALM      30.04R
MORRISTOWN     CLEAR     73  64  73 NE3       30.06R
JACKSBORO      CLEAR     70  68  94 CALM      30.09S
$$

TNZ083-085-099-220200-
SOUTHEAST TENNESSEE

CITY           SKY/WX    TMP DP  RH WIND       PRES   REMARKS
CHATTANOOGA    PTCLDY    77  68  73 N3        30.02S
DAYTON         CLEAR     72  72 100 CALM      30.02S
$$

SKY/WX REPORTED AS FAIR MEANS FEW OR NO CLOUDS BELOW
12 THOUSAND FEET.





USA.gov is the U.S. government's official web portal to all federal, state and local government web resources and services.